2015-10-08 00:00:54 r, 19.82m,0000000001Hz,0000466664c,0000001.013s, 019.9C,00002191
2015-10-08 00:10:54 r, 19.84m,0000000001Hz,0000471360c,0000001.023s, 019.9C,00002191
2015-10-08 00:20:54 r, 19.77m,0000000001Hz,0000445473c,0000000.967s, 019.9C,00002191
2015-10-08 00:30:54 r, 19.86m,0000000001Hz,0000478013c,0000001.037s, 019.9C,00002191
2015-10-08 00:40:54 r, 19.86m,0000000001Hz,0000481799c,0000001.046s, 020.3C,00002191
2015-10-08 00:50:54 r, 19.90m,0000000001Hz,0000498343c,0000001.081s, 020.3C,00002191
2015-10-08 01:00:56 r, 19.96m,0000000001Hz,0000525053c,0000001.139s, 020.3C,00002191
2015-10-08 01:10:54 r, 19.96m,0000000001Hz,0000527821c,0000001.145s, 020.3C,00002191
2015-10-08 01:20:54 r, 19.96m,0000000001Hz,0000527099c,0000001.144s, 020.3C,00002191
2015-10-08 01:30:54 r, 19.94m,0000000001Hz,0000512576c,0000001.112s, 020.3C,00002191
2015-10-08 01:40:54 r, 19.99m,0000000001Hz,0000539610c,0000001.171s, 020.3C,00002191
2015-10-08 01:50:54 r, 19.95m,0000000000Hz,0000517346c,0000001.123s, 020.3C,00002191
2015-10-08 02:00:54 r, 20.00m,0000000001Hz,0000541239c,0000001.175s, 020.6C,00002191
2015-10-08 02:10:54 r, 20.00m,0000000001Hz,0000546384c,0000001.186s, 020.6C,00002191
2015-10-08 02:20:54 r, 20.02m,0000000001Hz,0000555723c,0000001.206s, 020.6C,00002191
2015-10-08 02:30:54 r, 20.15m,0000000001Hz,0000626977c,0000001.361s, 020.6C,00002191
2015-10-08 02:40:54 r, 20.03m,0000000001Hz,0000560506c,0000001.216s, 020.6C,00002191
2015-10-08 02:50:54 r, 20.20m,0000000001Hz,0000653725c,0000001.419s, 020.6C,00002191
2015-10-08 03:00:54 r, 20.02m,0000000001Hz,0000553094c,0000001.200s, 020.6C,00002191
2015-10-08 03:10:54 r, 20.07m,0000000001Hz,0000582628c,0000001.264s, 020.6C,00002191
2015-10-08 03:20:54 r, 19.95m,0000000000Hz,0000517336c,0000001.123s, 020.6C,00002191
2015-10-08 03:30:54 r, 20.02m,0000000001Hz,0000555551c,0000001.206s, 020.6C,00002191
2015-10-08 03:40:54 r, 20.18m,0000000001Hz,0000643156c,0000001.396s, 020.6C,00002191
2015-10-08 03:50:54 r, 20.20m,0000000000Hz,0000655767c,0000001.423s, 020.6C,00002191
2015-10-08 04:00:54 r, 19.93m,0000000001Hz,0000508849c,0000001.104s, 020.6C,00002191
2015-10-08 04:10:54 r, 20.04m,0000000001Hz,0000568431c,0000001.234s, 020.6C,00002191
2015-10-08 04:20:54 r, 20.02m,0000000001Hz,0000555689c,0000001.206s, 020.6C,00002191
2015-10-08 04:30:54 r, 20.06m,0000000001Hz,0000574076c,0000001.246s, 020.6C,00002191
2015-10-08 04:40:54 r, 20.05m,0000000000Hz,0000573110c,0000001.244s, 020.6C,00002191
2015-10-08 04:50:54 r, 19.92m,0000000000Hz,0000507801c,0000001.102s, 020.3C,00002191
2015-10-08 05:00:54 r, 20.07m,0000000000Hz,0000578225c,0000001.255s, 020.3C,00002191
2015-10-08 05:10:54 r, 20.04m,0000000001Hz,0000567271c,0000001.231s, 020.3C,00002191
2015-10-08 05:20:54 r, 19.91m,0000000001Hz,0000501132c,0000001.088s, 020.3C,00002191
2015-10-08 05:30:56 r, 20.02m,0000000001Hz,0000556981c,0000001.209s, 020.3C,00002191
2015-10-08 05:40:54 r, 19.98m,0000000001Hz,0000533864c,0000001.159s, 020.3C,00002191
2015-10-08 05:50:54 r, 19.96m,0000000001Hz,0000526305c,0000001.142s, 020.3C,00002191
2015-10-08 06:00:56 r, 19.90m,0000000001Hz,0000497584c,0000001.080s, 020.3C,00002191
2015-10-08 06:10:54 r, 19.92m,0000000001Hz,0000506061c,0000001.098s, 020.3C,00002191
2015-10-08 06:20:54 r, 19.52m,0000000002Hz,0000354218c,0000000.769s, 020.3C,00002191
2015-10-08 06:30:55 r, 19.18m,0000000002Hz,0000258233c,0000000.560s, 020.3C,00002191
2015-10-08 06:40:54 r, 18.24m,0000000004Hz,0000108540c,0000000.236s, 020.3C,00002191
2015-10-08 06:50:54 r, 16.76m,0000000016Hz,0000027798c,0000000.060s, 020.6C,00002191
2015-10-08 07:00:54 r, 14.82m,0000000098Hz,0000004641c,0000000.010s, 020.6C,00002191
2015-10-08 07:10:54 r, 12.71m,0000000699Hz,0000000000c,0000000.000s, 020.6C,00002191
2015-10-08 07:20:54 r, 10.33m,0000006243Hz,0000000000c,0000000.000s, 020.6C,00002191
2015-10-08 07:30:54 r, 08.74m,0000026923Hz,0000000000c,0000000.000s, 020.6C,00002191
2015-10-08 07:40:54 r, 07.79m,0000064724Hz,0000000000c,0000000.000s, 020.9C,00002191
2015-10-08 07:50:54 r, 07.14m,0000118257Hz,0000000000c,0000000.000s, 020.6C,00002191
2015-10-08 08:00:55 r, 06.27m,0000263539Hz,0000000000c,0000000.000s, 020.6C,00002191
2015-10-08 08:10:54 r, 00.00m,0000466089Hz,0000000000c,0000000.000s, 020.6C,00002191
2015-10-08 08:20:54 r, 00.00m,0000596401Hz,0000000000c,0000000.000s, 020.9C,00002191
2015-10-08 08:30:55 r, 00.00m,0000539612Hz,0000000000c,0000000.000s, 020.9C,00002191
2015-10-08 08:40:54 r, 00.00m,0000596308Hz,0000000000c,0000000.000s, 021.2C,00002191
2015-10-08 08:50:54 r, 00.00m,0000596325Hz,0000000000c,0000000.000s, 021.2C,00002191
2015-10-08 09:00:54 r, 00.00m,0000596235Hz,0000000000c,0000000.000s, 021.5C,00002191
2015-10-08 09:10:54 r, 00.00m,0000596268Hz,0000000000c,0000000.000s, 021.9C,00002191
2015-10-08 09:20:54 r, 00.00m,0000596215Hz,0000000000c,0000000.000s, 021.9C,00002191
2015-10-08 09:30:54 r, 00.00m,0000596241Hz,0000000000c,0000000.000s, 022.2C,00002191
2015-10-08 09:40:54 r, 00.00m,0000596158Hz,0000000000c,0000000.000s, 022.5C,00002191
2015-10-08 09:50:54 r, 00.00m,0000596181Hz,0000000000c,0000000.000s, 022.8C,00002191
2015-10-08 10:00:54 r, 00.00m,0000596079Hz,0000000000c,0000000.000s, 023.2C,00002191
2015-10-08 10:10:54 r, 00.00m,0000595974Hz,0000000000c,0000000.000s, 023.5C,00002191
2015-10-08 10:20:54 r, 00.00m,0000596019Hz,0000000000c,0000000.000s, 023.5C,00002191
2015-10-08 10:30:54 r, 00.00m,0000595927Hz,0000000000c,0000000.000s, 024.4C,00002191
2015-10-08 10:40:54 r, 00.00m,0000595701Hz,0000000000c,0000000.000s, 026.4C,00002191
2015-10-08 10:50:54 r, 00.00m,0000595658Hz,0000000000c,0000000.000s, 027.7C,00002191
2015-10-08 11:00:55 r, 00.00m,0000595724Hz,0000000000c,0000000.000s, 027.0C,00002191
2015-10-08 11:10:54 r, 00.00m,0000595721Hz,0000000000c,0000000.000s, 026.1C,00002191
2015-10-08 11:20:54 r, 00.00m,0000595912Hz,0000000000c,0000000.000s, 025.4C,00002191
2015-10-08 11:30:54 r, 00.00m,0000595834Hz,0000000000c,0000000.000s, 025.4C,00002191
2015-10-08 11:40:54 r, 00.00m,0000595799Hz,0000000000c,0000000.000s, 025.4C,00002191
2015-10-08 11:50:54 r, 00.00m,0000595877Hz,0000000000c,0000000.000s, 025.7C,00002191
2015-10-08 12:00:54 r, 00.00m,0000595996Hz,0000000000c,0000000.000s, 025.4C,00002191
2015-10-08 12:10:55 r, 00.00m,0000595988Hz,0000000000c,0000000.000s, 024.8C,00002191
2015-10-08 12:20:54 r, 00.00m,0000595868Hz,0000000000c,0000000.000s, 024.8C,00002191
2015-10-08 12:30:54 r, 00.00m,0000595895Hz,0000000000c,0000000.000s, 024.8C,00002191
2015-10-08 12:40:54 r, 00.00m,0000595721Hz,0000000000c,0000000.000s, 025.7C,00002191
2015-10-08 12:50:54 r, 00.00m,0000595675Hz,0000000000c,0000000.000s, 026.1C,00002191
2015-10-08 13:00:54 r, 00.00m,0000595616Hz,0000000000c,0000000.000s, 026.7C,00002191
2015-10-08 13:10:55 r, 00.00m,0000595710Hz,0000000000c,0000000.000s, 027.0C,00002191
2015-10-08 13:20:54 r, 00.00m,0000595685Hz,0000000000c,0000000.000s, 026.4C,00002191
2015-10-08 13:30:54 r, 00.00m,0000595608Hz,0000000000c,0000000.000s, 027.7C,00002191
2015-10-08 13:40:56 r, 00.00m,0000595652Hz,0000000000c,0000000.000s, 027.3C,00002191
2015-10-08 13:50:54 r, 00.00m,0000595761Hz,0000000000c,0000000.000s, 026.7C,00002191
2015-10-08 14:00:54 r, 00.00m,0000595813Hz,0000000000c,0000000.000s, 026.4C,00002191
2015-10-08 14:10:55 r, 00.00m,0000595750Hz,0000000000c,0000000.000s, 026.1C,00002191
2015-10-08 14:20:54 r, 00.00m,0000595820Hz,0000000000c,0000000.000s, 026.1C,00002191
2015-10-08 14:30:54 r, 00.00m,0000595689Hz,0000000000c,0000000.000s, 026.4C,00002191
2015-10-08 14:40:55 r, 00.00m,0000595769Hz,0000000000c,0000000.000s, 026.4C,00002191
2015-10-08 14:50:54 r, 00.00m,0000595786Hz,0000000000c,0000000.000s, 026.1C,00002191
2015-10-08 15:00:54 r, 00.00m,0000595926Hz,0000000000c,0000000.000s, 025.4C,00002191
2015-10-08 15:10:54 r, 00.00m,0000596006Hz,0000000000c,0000000.000s, 024.8C,00002191
2015-10-08 15:20:54 r, 00.00m,0000595956Hz,0000000000c,0000000.000s, 024.8C,00002191
2015-10-08 15:30:54 r, 00.00m,0000595971Hz,0000000000c,0000000.000s, 024.8C,00002191
2015-10-08 15:40:55 r, 00.00m,0000596018Hz,0000000000c,0000000.000s, 024.4C,00002191
2015-10-08 15:50:54 r, 00.00m,0000596023Hz,0000000000c,0000000.000s, 024.4C,00002191
2015-10-08 16:00:54 r, 00.00m,0000595921Hz,0000000000c,0000000.000s, 024.1C,00002191
2015-10-08 16:10:54 r, 00.00m,0000595978Hz,0000000000c,0000000.000s, 023.8C,00002191
2015-10-08 16:20:54 r, 00.00m,0000596056Hz,0000000000c,0000000.000s, 023.8C,00002191
2015-10-08 16:30:54 r, 00.00m,0000596072Hz,0000000000c,0000000.000s, 023.8C,00002191
2015-10-08 16:40:54 r, 00.00m,0000596121Hz,0000000000c,0000000.000s, 023.5C,00002191
2015-10-08 16:50:54 r, 00.00m,0000596077Hz,0000000000c,0000000.000s, 023.8C,00002191
2015-10-08 17:00:54 r, 00.00m,0000596020Hz,0000000000c,0000000.000s, 023.8C,00002191
2015-10-08 17:10:54 r, 00.00m,0000596093Hz,0000000000c,0000000.000s, 023.8C,00002191
2015-10-08 17:20:54 r, 00.00m,0000596188Hz,0000000000c,0000000.000s, 023.5C,00002191
2015-10-08 17:30:54 r, 00.00m,0000596198Hz,0000000000c,0000000.000s, 023.5C,00002191
2015-10-08 17:40:54 r, 00.00m,0000596159Hz,0000000000c,0000000.000s, 023.5C,00002191
2015-10-08 17:50:54 r, 00.00m,0000596174Hz,0000000000c,0000000.000s, 023.5C,00002191
2015-10-08 18:00:54 r, 00.00m,0000490497Hz,0000000000c,0000000.000s, 023.2C,00002191
2015-10-08 18:10:54 r, 06.08m,0000313456Hz,0000000000c,0000000.000s, 023.2C,00002191
2015-10-08 18:20:54 r, 06.66m,0000183253Hz,0000000000c,0000000.000s, 022.8C,00002191
2015-10-08 18:30:54 r, 07.00m,0000134910Hz,0000000000c,0000000.000s, 022.8C,00002191
2015-10-08 18:40:54 r, 07.77m,0000066073Hz,0000000000c,0000000.000s, 022.5C,00002191
2015-10-08 18:50:54 r, 08.17m,0000045415Hz,0000000000c,0000000.000s, 022.5C,00002191
2015-10-08 19:00:54 r, 09.38m,0000014856Hz,0000000000c,0000000.000s, 022.5C,00002191
2015-10-08 19:10:54 r, 11.10m,0000003065Hz,0000000000c,0000000.000s, 022.5C,00002191
2015-10-08 19:20:54 r, 13.44m,0000000356Hz,0000000000c,0000000.000s, 022.5C,00002191
2015-10-08 19:30:54 r, 15.26m,0000000066Hz,0000006995c,0000000.015s, 022.2C,00002191
2015-10-08 19:40:54 r, 16.98m,0000000013Hz,0000033929c,0000000.074s, 022.2C,00002191
2015-10-08 19:50:54 r, 18.67m,0000000002Hz,0000160300c,0000000.348s, 022.2C,00002191
2015-10-08 20:00:54 r, 19.43m,0000000001Hz,0000322531c,0000000.700s, 021.9C,00002191
2015-10-08 20:10:54 r, 19.73m,0000000001Hz,0000427232c,0000000.927s, 021.9C,00002191
2015-10-08 20:20:54 r, 19.94m,0000000000Hz,0000516402c,0000001.121s, 021.9C,00002191
2015-10-08 20:30:54 r, 20.14m,0000000001Hz,0000615590c,0000001.336s, 021.9C,00002191
2015-10-08 20:40:54 r, 20.28m,0000000000Hz,0000696819c,0000001.512s, 021.9C,00002191
2015-10-08 20:50:54 r, 20.32m,0000000000Hz,0000722770c,0000001.569s, 021.5C,00002191
2015-10-08 21:00:54 r, 20.34m,0000000001Hz,0000739407c,0000001.605s, 021.5C,00002191
2015-10-08 21:10:54 r, 20.68m,0000000000Hz,0001013300c,0000002.199s, 021.2C,00002191
2015-10-08 21:20:54 r, 20.77m,0000000000Hz,0001101032c,0000002.389s, 020.6C,00002191
2015-10-08 21:30:54 r, 20.55m,0000000001Hz,0000904415c,0000001.963s, 020.3C,00002191
2015-10-08 21:40:54 r, 20.67m,0000000001Hz,0000996256c,0000002.162s, 019.6C,00002191
2015-10-08 21:50:54 r, 20.69m,0000000000Hz,0001017059c,0000002.207s, 019.0C,00002191
2015-10-08 22:00:54 r, 20.70m,0000000000Hz,0001031199c,0000002.238s, 018.6C,00002191
2015-10-08 22:10:55 r, 20.72m,0000000000Hz,0001049418c,0000002.277s, 018.0C,00002191
2015-10-08 22:20:54 r, 20.72m,0000000001Hz,0001050918c,0000002.281s, 017.7C,00002191
2015-10-08 22:30:54 r, 20.67m,0000000000Hz,0001004895c,0000002.181s, 017.4C,00002191
2015-10-08 22:40:54 r, 20.70m,0000000000Hz,0001028934c,0000002.233s, 016.7C,00002191
2015-10-08 22:50:54 r, 20.74m,0000000001Hz,0001068360c,0000002.318s, 016.4C,00002191
2015-10-08 23:00:54 r, 20.73m,0000000000Hz,0001061684c,0000002.304s, 016.4C,00002191
2015-10-08 23:10:55 r, 20.77m,0000000001Hz,0001104946c,0000002.398s, 016.1C,00002191
2015-10-08 23:20:54 r, 20.82m,0000000000Hz,0001149690c,0000002.495s, 015.7C,00002191
2015-10-08 23:30:54 r, 20.83m,0000000000Hz,0001157242c,0000002.511s, 015.4C,00002191
2015-10-08 23:40:55 r, 20.83m,0000000001Hz,0001158751c,0000002.515s, 015.1C,00002191
2015-10-08 23:50:54 r, 20.83m,0000000000Hz,0001158080c,0000002.513s, 015.1C,00002191
